Weather History for Szeged, Hungary

Change the Weather History Date:

Monday, February 11, 2013

  Actual Average (LRAR) Record (LRAR)
Temperature  
Mean Temperature 26 °F -  
Max Temperature 32 °F 45 °F 62 °F (2014)
Min Temperature 19 °F 30 °F -9 °F (2012)
Degree Days  
Heating Degree Days 40    
Moisture  
Dew Point 23 °F    
Average Humidity 88    
Maximum Humidity 100    
Minimum Humidity 67    
Precipitation  
Precipitation 0.00 in 0.03 in - ()
Sea Level Pressure  
Sea Level Pressure 29.96 in    
Wind  
Wind Speed 6 mph ()    
Max Wind Speed 12 mph    
Max Gust Speed -    
Visibility 3.5 miles    
Events Fog    
Averages and records for this station are not official NWS values.
T = Trace of Precipitation, MM = Missing Value Source: Averaged Metar Reports

Daily Weather History Graph

Daily Weather History Graph

Search for Another Location

Airport:

Trip Planner

Search our weather history database for the weather conditions in past years. The results will help you decide how hot, cold, wet, or windy it might be!

Date:

Astronomy

Feb. 11, 2013 Rise Set
Actual Time 6:48 AM CET 4:59 PM CET
Civil Twilight 6:17 AM CET 5:30 PM CET
Nautical Twilight 5:42 AM CET 6:06 PM CET
Astronomical Twilight 5:07 AM CET 6:40 PM CET
Moon 6:56 AM CET (2/11) 6:45 PM CET (2/11)
Length of Visible Light 11h 12m
Length of Day
10h 10m
New Moon, 2% of the Moon is Illuminated
Feb 11
New Moon
Feb 17
First Quarter
Feb 25
Full
Mar 4
Last Quarter
Mar 11
New

Hourly Weather History & Observations

Time (CET) Temp. Windchill Dew Point Humidity Pressure Visibility Wind Dir Wind Speed Gust Speed Precip Events Conditions
12:45 AM 24.8 °F 16.9 °F 23.0 °F 93% 29.95 in 2.5 mi SSW 6.9 mph - N/A   Mostly Cloudy
1:00 AM 25 °F - 24 °F 93% 29.96 in 2 mi SSW 6.7 mph - -   Mist
1:45 AM 19.4 °F 9.5 °F 19.4 °F 100% 29.95 in 2.2 mi SSW 8.1 mph - N/A   Mist
2:45 AM 21.2 °F 12.6 °F 19.4 °F 93% 29.95 in 2.2 mi South 6.9 mph - N/A   Overcast
3:45 AM 23.0 °F 13.9 °F 23.0 °F 100% 29.95 in 1.2 mi SW 8.1 mph - N/A   Partly Cloudy
4:45 AM 24.8 °F 14.6 °F 23.0 °F 93% 29.95 in 2.2 mi SW 10.4 mph - N/A   Mostly Cloudy
5:15 AM 24.8 °F 16.1 °F 24.8 °F 100% 29.95 in 3.1 mi SW 8.1 mph - N/A   Scattered Clouds
5:45 AM 21.2 °F 14.9 °F 19.4 °F 93% 29.95 in 3.1 mi SSE 4.6 mph - N/A   Partly Cloudy
6:15 AM 21.2 °F 14.9 °F 19.4 °F 93% 29.98 in 2.8 mi SSE 4.6 mph - N/A   Partly Cloudy
6:45 AM 19.4 °F 14.3 °F 17.6 °F 93% 29.98 in 1.9 mi South 3.5 mph - N/A   Scattered Clouds
6:58 AM 21.2 °F 16.4 °F 21.2 °F 100% 30.01 in 0.5 mi South 3.5 mph - N/A Fog Light Freezing Fog
7:00 AM 20 °F - 18 °F 90% 29.99 in 2 mi South 4.5 mph - -   Mist
7:15 AM 21.2 °F 16.4 °F 21.2 °F 100% 29.98 in 0.2 mi South 3.5 mph - N/A Fog Light Freezing Fog
7:45 AM 21.2 °F 14.9 °F 21.2 °F 100% 29.98 in 2.2 mi SSW 4.6 mph - N/A   Mostly Cloudy
8:15 AM 23.0 °F 18.4 °F 23.0 °F 100% 29.98 in 1.6 mi South 3.5 mph - N/A   Mostly Cloudy
8:45 AM 21.2 °F 14.9 °F 19.4 °F 93% 29.98 in 1.1 mi SSW 4.6 mph - N/A   Partly Cloudy
9:15 AM 23.0 °F - 21.2 °F 93% 29.98 in 1.2 mi SSW 2.3 mph - N/A   Scattered Clouds
10:15 AM 26.6 °F - 26.6 °F 100% 29.98 in 2.5 mi South 2.3 mph - N/A   Partly Cloudy
10:45 AM 28.4 °F 24.6 °F 24.8 °F 86% 29.98 in 3.7 mi SSW 3.5 mph - N/A   Partly Cloudy
11:15 AM 30.2 °F 24.3 °F 24.8 °F 80% 29.98 in 5.0 mi SSE 5.8 mph - N/A   Partly Cloudy
11:45 AM 32.0 °F 25.6 °F 24.8 °F 75% 29.98 in 6.2 mi South 6.9 mph - N/A   Partly Cloudy
12:15 PM 32.0 °F 24.8 °F 24.8 °F 75% 29.98 in 6.2 mi SE 8.1 mph - N/A   Partly Cloudy
12:45 PM 32.0 °F 25.6 °F 24.8 °F 75% 29.98 in 6.2 mi SSE 6.9 mph - N/A   Scattered Clouds
1:00 PM 32 °F - 25 °F 67% 29.99 in 9 mi SSE 6.7 mph - -   Partly Cloudy
1:15 PM 32.0 °F 24.8 °F 24.8 °F 75% 29.98 in 6.2 mi SE 8.1 mph - N/A   Mostly Cloudy
1:45 PM 32.0 °F 24.8 °F 26.6 °F 80% 29.98 in 6.2 mi SSE 8.1 mph - N/A   Scattered Clouds
2:15 PM 30.2 °F 21.3 °F 24.8 °F 80% 29.98 in 6.2 mi SE 10.4 mph - N/A   Partly Cloudy
2:45 PM 30.2 °F 21.9 °F 24.8 °F 80% 29.98 in 6.2 mi SE 9.2 mph - N/A   Scattered Clouds
3:15 PM 30.2 °F 21.3 °F 24.8 °F 80% 29.95 in - ESE 10.4 mph - N/A   Clear
3:45 PM 30.2 °F 21.9 °F 24.8 °F 80% 29.95 in - ESE 9.2 mph - N/A   Clear
4:15 PM 28.4 °F 18.5 °F 24.8 °F 86% 29.95 in - ESE 11.5 mph - N/A   Clear
4:45 PM 28.4 °F 20.4 °F 23.0 °F 80% 29.95 in 5.6 mi ESE 8.1 mph - N/A   Scattered Clouds
5:15 PM 26.6 °F 19.1 °F 23.0 °F 86% 29.95 in 4.3 mi ESE 6.9 mph - N/A   Mostly Cloudy
5:45 PM 26.6 °F 17.5 °F 24.8 °F 93% 29.95 in 3.7 mi ESE 9.2 mph - N/A   Mostly Cloudy
6:15 PM 26.6 °F 19.1 °F 24.8 °F 93% 29.95 in 3.7 mi ESE 6.9 mph - N/A   Scattered Clouds
6:45 PM 26.6 °F 18.2 °F 24.8 °F 93% 29.95 in 2.8 mi ESE 8.1 mph - N/A   Scattered Clouds
7:00 PM 26 °F - 24 °F 88% 29.96 in 3 mi ESE 8.9 mph - -   Mist
7:15 PM 26.6 °F 18.2 °F 24.8 °F 93% 29.95 in 2.8 mi East 8.1 mph - N/A   Scattered Clouds
7:45 PM 26.6 °F 18.2 °F 23.0 °F 86% 29.92 in 2.5 mi East 8.1 mph - N/A   Scattered Clouds
8:15 PM 26.6 °F 18.2 °F 23.0 °F 86% 29.92 in 3.1 mi East 8.1 mph - N/A   Partly Cloudy
8:45 PM 26.6 °F 18.2 °F 23.0 °F 86% 29.92 in 3.7 mi East 8.1 mph - N/A   Partly Cloudy
9:45 PM 26.6 °F 18.2 °F 23.0 °F 86% 29.92 in 4.3 mi East 8.1 mph - N/A   Unknown
10:45 PM 26.6 °F 17.5 °F 23.0 °F 86% 29.89 in 4.3 mi ENE 9.2 mph - N/A   Unknown
11:45 PM 26.6 °F 16.2 °F 23.0 °F 86% 29.89 in 4.3 mi ENE 11.5 mph - N/A   Mostly Cloudy